This is the latest recevied weather packets stored in our database for station/object KD5GAT-51. If no packets are shown the sender has not sent any weather packets the latest 10 day(s).
| Time | Temp. | Humidity | Pressure | Rain* | Wind** | Luminosity | Snow |
|---|---|---|---|---|---|---|---|
| 1788409698 | 30° C | 100% | 1014.9 hPa | - | - | - | - |
| 1788408798 | 30.56° C | 100% | 1015 hPa | - | - | - | - |
| 1788407898 | 31.11° C | 100% | 1014.8 hPa | - | - | - | - |
| 1788406997 | 31.67° C | 100% | 1014.6 hPa | - | - | - | - |
| 1788406097 | 31.67° C | 100% | 1014.2 hPa | - | - | - | - |
| 1788405197 | 32.22° C | 100% | 1014 hPa | - | - | - | - |
| 1788404297 | 32.22° C | 100% | 1013.8 hPa | - | - | - | - |
| 1788403397 | 32.78° C | 99% | 1013.7 hPa | - | - | - | - |
| 1788402497 | 32.78° C | 63% | 1013.4 hPa | - | - | - | - |
| 1788401609 | 33.33° C | 58% | 1013.1 hPa | - | - | - | - |
| 1788400696 | 33.33° C | 55% | 1012.9 hPa | - | - | - | - |
| 1788399796 | 33.89° C | 52% | 1012.7 hPa | - | - | - | - |
| 1788398896 | 33.89° C | 48% | 1012.6 hPa | - | - | - | - |
| 1788397996 | 34.44° C | 46% | 1012.5 hPa | - | - | - | - |
| 1788397096 | 35.56° C | 43% | 1012.4 hPa | - | - | - | - |
| 1788396195 | 36.67° C | 39% | 1012.5 hPa | - | - | - | - |
| 1788395295 | 37.78° C | 37% | 1012.5 hPa | - | - | - | - |
| 1788394395 | 38.89° C | 33% | 1012.5 hPa | - | - | - | - |
| 1788393495 | 39.44° C | 31% | 1012.5 hPa | - | - | - | - |
| 1788392595 | 40° C | 31% | 1012.6 hPa | - | - | - | - |
| 1788391695 | 41.11° C | 29% | 1012.7 hPa | - | - | - | - |
| 1788390794 | 41.11° C | 30% | 1012.7 hPa | - | - | - | - |
| 1788389894 | 42.22° C | 30% | 1012.7 hPa | - | - | - | - |
| 1788388994 | 42.22° C | 29% | 1012.7 hPa | - | - | - | - |
| 1788388094 | 42.22° C | 29% | 1012.8 hPa | - | - | - | - |
* Rain since midnight (hover to see other rain measurements)
** Current wind speed in m/s (hover to see current wind gust speed)